{"data":{"norad_id":59414,"intl_designator":"2024-064S","name":"STARLINK-31457","alt_names":[],"object_type":"PAYLOAD","status":"ACTIVE","operator":null,"country":"US","launch_date":"2024-04-05","launch_site_code":"AFETR","launch_vehicle":null,"mission":null,"orbit_class":"UNKNOWN","rcs_meters":null,"size_class":null,"mass_kg":null,"dimensions":null,"purposes":["comms"],"wikipedia_slug":null,"has_3d_model":false,"image_url":null,"decayed_at":null,"tle_current":{"epoch":"2026-05-24T20:35:54.147840Z","epoch_age_seconds":84348,"freshness":"FRESH","line1":"1 59414U 24064S   26144.85826560 -.00000080  00000+0  66314-5 0  9999","line2":"2 59414  43.0030 339.1604 0000961 254.4995 105.5751 15.27573147120958","mean_motion":15.27573147,"eccentricity":9.61e-5,"inclination_deg":43.003,"raan_deg":339.1604,"arg_perigee_deg":254.4995,"mean_anomaly_deg":105.5751,"bstar":6.6314e-6,"rev_number":12095,"period_min":94.267171613223,"perigee_km":482.41025450788,"apogee_km":483.72897841956,"semimajor_km":6861.2066164637,"source":"CELESTRAK","updated_at":"2026-05-25T13:38:18.942009Z"}}}